This is the latest recevied weather packets stored in our database for station/object K3HW. If no packets are shown the sender has not sent any weather packets the latest 10 day(s).
| Time | Temp. | Humidity | Pressure | Rain* | Wind** | Luminosity | Snow |
|---|---|---|---|---|---|---|---|
| 1778145308 | 9.44° C | 92% | 1013.6 hPa | 1.78 mm | - | 0 W/m² | - |
| 1778145003 | 9.44° C | 92% | 1013.9 hPa | 0 mm | - | 0 W/m² | - |
| 1778144700 | 9.44° C | 92% | 1013.6 hPa | 1.27 mm | - | 0 W/m² | - |
| 1778144396 | 9.44° C | 92% | 1013.7 hPa | 1.27 mm | - | 0 W/m² | - |
| 1778144094 | 9.44° C | 92% | 1013.6 hPa | 0 mm | - | 0 W/m² | - |
| 1778143790 | 10° C | 91% | 1013.6 hPa | 1.78 mm | - | 0 W/m² | - |
| 1778143487 | 10° C | 91% | 1013.9 hPa | 1.78 mm | - | 0 W/m² | - |
| 1778143184 | 10° C | 91% | 1013.7 hPa | 0 mm | - | 0 W/m² | - |
| 1778142880 | 10° C | 91% | 1013.7 hPa | 1.27 mm | - | 0 W/m² | - |
| 1778142577 | 10° C | 91% | 1014 hPa | 1.27 mm | - | 0 W/m² | - |
| 1778142273 | 10° C | 91% | 1013.9 hPa | 1.78 mm | - | 0 W/m² | - |
| 1778141970 | 10° C | 91% | 1013.7 hPa | 1.78 mm | - | 0 W/m² | - |
| 1778141666 | 10° C | 91% | 1013.9 hPa | 1.78 mm | - | 0 W/m² | - |
| 1778141363 | 10° C | 91% | 1013.7 hPa | 1.27 mm | - | 0 W/m² | - |
| 1778141059 | 10° C | 91% | 1013.7 hPa | 1.27 mm | - | 0 W/m² | - |
| 1778140754 | 10° C | 91% | 1013.9 hPa | 1.78 mm | - | 0 W/m² | - |
| 1778140451 | 10° C | 91% | 1014 hPa | 1.78 mm | - | 0 W/m² | - |
| 1778140148 | 10° C | 91% | 1014.1 hPa | 0 mm | - | 0 W/m² | - |
| 1778139844 | 10° C | 91% | 1014 hPa | 1.27 mm | - | 0 W/m² | - |
| 1778139542 | 10° C | 91% | 1014.2 hPa | 1.27 mm | - | 0 W/m² | - |
| 1778139238 | 10° C | 91% | 1014.2 hPa | 0 mm | - | 0 W/m² | - |
| 1778138935 | 10° C | 91% | 1014.1 hPa | 1.78 mm | - | 0 W/m² | - |
| 1778138633 | 10° C | 91% | 1014.4 hPa | 1.78 mm | - | 0 W/m² | - |
| 1778138330 | 10° C | 91% | 1014.3 hPa | 0 mm | - | 0 W/m² | - |
| 1778138027 | 10° C | 91% | 1014.4 hPa | 1.27 mm | - | 0 W/m² | - |
* Rain latest hour (hover to see other rain measurements)
** Current wind speed in m/s (hover to see current wind gust speed)